Wakefield, VA

6:47 AM EST on February 06, 2016 (GMT -0500)
Wakefield Municipal

Weather History for KAKQ - December, 2013

Change the Weather History Date:

Tuesday, December 24, 2013

  Actual Average (KJGG) Record (KJGG)
Temperature  
Mean Temperature 38 °F -  
Max Temperature 45 °F 51 °F 80 °F (2015)
Min Temperature 30 °F 30 °F 8 °F (1983)
Degree Days  
Heating Degree Days 26    
Moisture  
Dew Point 25 °F    
Average Humidity 57    
Maximum Humidity 80    
Minimum Humidity 42    
Precipitation  
Precipitation 0.00 in - - ()
Sea Level Pressure  
Sea Level Pressure 30.27 in    
Wind  
Wind Speed 8 mph (North)    
Max Wind Speed 12 mph    
Max Gust Speed 21 mph    
Visibility 10 miles    
Events      
Averages and records for this station are not official NWS values.
T = Trace of Precipitation, MM = Missing Value Source: NWS Daily Summary

Daily Weather History Graph

Daily Weather History Graph

Search for Another Location

Airport or City:

Trip Planner

Search our weather history database for the weather conditions in past years. The results will help you decide how hot, cold, wet, or windy it might be!

Date:

Astronomy

Dec. 24, 2013 Rise Set
Actual Time 7:18 AM EST 4:56 PM EST
Civil Twilight 6:49 AM EST 5:25 PM EST
Nautical Twilight 6:17 AM EST 5:58 PM EST
Astronomical Twilight 5:45 AM EST 6:29 PM EST
Moon 11:53 PM EST (12/24) 11:21 AM EST (12/24)
Length of Visible Light 10h 35m
Length of Day
9h 37m
Waning Gibbous, 59% of the Moon is Illuminated
Dec 24
Waning Gibbous
Dec 25
Last Quarter
Jan 1
New
Jan 7
First Quarter
Jan 15
Full

Hourly Weather History & Observations

Time (EST) Temp. Windchill Dew Point Humidity Pressure Visibility Wind Dir Wind Speed Gust Speed Precip Events Conditions
12:54 AM 43.0 °F 37.2 °F 37.0 °F 80% 30.17 in 10.0 mi NNE 10.4 mph - 0.00 in   Overcast
1:54 AM 43.0 °F 38.8 °F 35.1 °F 74% 30.17 in 10.0 mi NNE 6.9 mph - N/A   Overcast
2:54 AM 42.1 °F 38.4 °F 33.1 °F 70% 30.18 in 10.0 mi NNE 5.8 mph - N/A   Overcast
3:54 AM 41.0 °F 35.8 °F 32.0 °F 70% 30.18 in 10.0 mi North 8.1 mph - N/A   Overcast
4:54 AM 39.9 °F 35.1 °F 28.9 °F 65% 30.17 in 10.0 mi Variable 6.9 mph - N/A   Overcast
5:54 AM 39.0 °F 32.3 °F 27.0 °F 62% 30.18 in 10.0 mi North 10.4 mph 19.6 mph N/A   Overcast
6:54 AM 37.9 °F 32.1 °F 27.0 °F 65% 30.19 in 10.0 mi North 8.1 mph - N/A   Overcast
7:54 AM 36.0 °F 31.1 °F 25.0 °F 64% 30.22 in 10.0 mi North 5.8 mph - N/A   Scattered Clouds
8:54 AM 36.0 °F 30.3 °F 25.0 °F 64% 30.25 in 10.0 mi Variable 6.9 mph - N/A   Clear
9:54 AM 39.9 °F 32.9 °F 25.0 °F 55% 30.26 in 10.0 mi North 11.5 mph 20.7 mph N/A   Clear
10:54 AM 41.0 °F 35.2 °F 25.0 °F 53% 30.24 in 10.0 mi North 9.2 mph - N/A   Clear
11:54 AM 42.1 °F 37.1 °F 24.1 °F 49% 30.23 in 10.0 mi North 8.1 mph - N/A   Clear
12:54 PM 43.0 °F 38.8 °F 25.0 °F 49% 30.23 in 10.0 mi Variable 6.9 mph - N/A   Clear
1:54 PM 44.1 °F 40.8 °F 24.1 °F 45% 30.23 in 10.0 mi NNW 5.8 mph - N/A   Clear
2:54 PM 45.0 °F 40.1 °F 25.0 °F 46% 30.24 in 10.0 mi NW 9.2 mph - N/A   Scattered Clouds
3:54 PM 44.1 °F 41.5 °F 25.0 °F 47% 30.26 in 10.0 mi NW 4.6 mph - N/A   Mostly Cloudy
4:54 PM 42.1 °F 38.4 °F 26.1 °F 53% 30.29 in 10.0 mi Variable 5.8 mph - N/A   Overcast
5:54 PM 39.0 °F - 26.1 °F 60% 30.31 in 10.0 mi Calm Calm - N/A   Clear
6:54 PM 39.0 °F 36.8 °F 25.0 °F 57% 30.34 in 10.0 mi Variable 3.5 mph - N/A   Mostly Cloudy
7:54 PM 37.9 °F 32.7 °F 24.1 °F 57% 30.37 in 10.0 mi Variable 6.9 mph - N/A   Clear
8:54 PM 37.0 °F 30.4 °F 21.0 °F 52% 30.40 in 10.0 mi North 9.2 mph - N/A   Clear
9:54 PM 34.0 °F 27.2 °F 16.0 °F 48% 30.43 in 10.0 mi North 8.1 mph - N/A   Clear
10:54 PM 32.0 °F 24.2 °F 10.9 °F 42% 30.46 in 10.0 mi North 9.2 mph - N/A   Clear
11:54 PM 30.0 °F 23.2 °F 10.0 °F 43% 30.46 in 10.0 mi North 6.9 mph - N/A   Clear